Location: Ottobeuren
(47.9410°N, 10.3007°E)
Time: 15:46:06
(UTC+01:00)

ISS - Pass Details

Date: 30 October 2019
Orbit: 412 x 421 km, 51.6° (Epoch: 22 November)

Event Time Altitude Azimuth Distance (km) Brightness Sun altitude
Exits shadow 05:43:27 24° 265° (W) 911 -2.7 -13.3°
Maximum altitude 05:45:17 65° 342° (NNW) 467 -3.7 -13.0°
Drops below altitude 10° 05:48:39 10° 65° (ENE) 1,508 0.0 -12.4°
Sets 05:50:46 0° 69° (ENE) 2,372 1.2 -12.1°
